,,PA_Meas_PMT16A,,PR_Meas_QMR101_102,,RH_Meas_QMH101,,SR_Meas_QMS101,,TA_Meas_QMH101,,GenWind,,GenWind,
time,status,PA,status,PR,status,RH,status,SR,status,TA,status,DirAvg,status,SpdAvg,
2016-03-02, 07:23:04,VALID,919.426,VALID,0,VALID,84.5666,VALID,135.161,VALID,21.8876,VALID,127,VALID,0,
2016-03-02, 07:24:04,VALID,919.443,VALID,0,VALID,85.9083,VALID,137.202,VALID,21.9249,VALID,140,VALID,0,
2016-03-02, 07:25:04,VALID,919.472,VALID,0,VALID,85.8473,VALID,136.88,VALID,22.0047,VALID,134,VALID,0,
2016-03-02, 07:26:04,VALID,919.48,VALID,0,VALID,82.6607,VALID,146.979,VALID,22.0632,VALID,126,VALID,0.285156,
2016-03-02, 07:27:04,VALID,919.469,VALID,0,VALID,83.3239,VALID,144.616,VALID,22.1413,VALID,140,VALID,0,
2016-03-02, 07:28:04,VALID,919.487,VALID,0,VALID,82.6683,VALID,132.797,VALID,22.1608,VALID,131,VALID,0,
2016-03-02, 07:29:04,VALID,919.524,VALID,0,VALID,84.8715,VALID,130.219,VALID,22.2176,VALID,155,VALID,0,
2016-03-02, 07:30:04,VALID,919.534,VALID,0,VALID,84.6885,VALID,162.236,VALID,22.2371,VALID,150,VALID,0,
2016-03-02, 07:31:04,VALID,919.525,VALID,0,VALID,82.4549,VALID,164.492,VALID,22.2762,VALID,158,VALID,0.0289063,
2016-03-02, 07:32:04,VALID,919.519,VALID,0,VALID,83.0495,VALID,126.028,VALID,22.395,VALID,153,VALID,0,
2016-03-02, 07:33:04,VALID,919.475,VALID,0,VALID,82.3863,VALID,160.302,VALID,22.3933,VALID,130,VALID,0,
2016-03-02, 07:34:04,VALID,919.532,VALID,0,VALID,82.4167,VALID,159.55,VALID,22.4713,VALID,133,VALID,0,
2016-03-02, 07:35:04,VALID,919.574,VALID,0,VALID,82.1804,VALID,164.6,VALID,22.4908,VALID,137,VALID,0,
2016-03-02, 07:36:04,VALID,919.578,VALID,0,VALID,80.9912,VALID,176.096,VALID,22.4713,VALID,133,VALID,1.1332,
2016-03-02, 07:37:04,VALID,919.6,VALID,0,VALID,80.549,VALID,183.08,VALID,22.4518,VALID,144,VALID,0.524609,
2016-03-02, 07:38:04,VALID,919.619,VALID,0,VALID,81.0979,VALID,178.245,VALID,22.5103,VALID,143,VALID,0.235156,
2016-03-02, 07:39:04,VALID,919.636,VALID,0,VALID,82.028,VALID,173.84,VALID,22.5299,VALID,129,VALID,0.403516,
2016-03-02, 07:40:04,VALID,919.659,VALID,0,VALID,81.1741,VALID,180.823,VALID,22.5299,VALID,150,VALID,1.14531,
2016-03-02, 07:41:04,VALID,919.67,VALID,0,VALID,80.4194,VALID,191.245,VALID,22.5299,VALID,145,VALID,0.759766,
2016-03-02, 07:42:04,VALID,919.647,VALID,0,VALID,81.2275,VALID,185.551,VALID,22.5689,VALID,124,VALID,0.351172,
2016-03-02, 07:43:04,VALID,919.629,VALID,0,VALID,81.0217,VALID,188.237,VALID,22.5672,VALID,142,VALID,1.82578,
2016-03-02, 07:44:04,VALID,919.66,VALID,0,VALID,80.2746,VALID,187.915,VALID,22.5884,VALID,149,VALID,1.16953,
2016-03-02, 07:45:04,VALID,919.634,VALID,0,VALID,81.38,VALID,185.981,VALID,22.5672,VALID,127,VALID,0.663281,
2016-03-02, 07:46:04,VALID,919.61,VALID,0,VALID,81.6544,VALID,193.716,VALID,22.6274,VALID,123,VALID,1.15977,
2016-03-02, 07:47:04,VALID,919.604,VALID,0,VALID,82.3329,VALID,179.104,VALID,22.6257,VALID,139,VALID,0.0148437,
2016-03-02, 07:48:04,VALID,919.618,VALID,0,VALID,81.3723,VALID,200.378,VALID,22.6452,VALID,136,VALID,1.46484,
2016-03-02, 07:49:04,VALID,919.592,VALID,0,VALID,80.6786,VALID,205.105,VALID,22.6257,VALID,146,VALID,1.94336,
2016-03-02, 07:50:04,VALID,919.628,VALID,0,VALID,79.8095,VALID,202.527,VALID,22.6062,VALID,138,VALID,2.37344,
2016-03-02, 07:51:04,VALID,919.629,VALID,0,VALID,80.4499,VALID,206.287,VALID,22.5867,VALID,150,VALID,1.22422,
2016-03-02, 07:52:04,VALID,919.659,VALID,0,VALID,81.6087,VALID,217.246,VALID,22.585,VALID,144,VALID,0.0859375,
2016-03-02, 07:53:04,VALID,919.705,VALID,0,VALID,82.3481,VALID,217.031,VALID,22.686,VALID,136,VALID,0.144531,
2016-03-02, 07:54:04,VALID,919.738,VALID,0,VALID,81.5858,VALID,230.569,VALID,22.725,VALID,149,VALID,1.50898,
2016-03-02, 07:55:04,VALID,919.748,VALID,0,VALID,80.3432,VALID,194.361,VALID,22.7623,VALID,133,VALID,1.60312,
2016-03-02, 07:56:04,VALID,919.735,VALID,0,VALID,80.8006,VALID,224.445,VALID,22.7445,VALID,132,VALID,2.32969,
2016-03-02, 07:57:04,VALID,919.798,VALID,0,VALID,81.4791,VALID,223.478,VALID,22.686,VALID,139,VALID,1.41914,
2016-03-02, 07:58:04,VALID,919.781,VALID,0,VALID,80.0154,VALID,238.734,VALID,22.7055,VALID,147,VALID,1.91211,
2016-03-02, 07:59:04,VALID,919.799,VALID,0,VALID,81.4105,VALID,253.131,VALID,22.7623,VALID,126,VALID,0.221484,
2016-03-02, 08:00:04,VALID,919.795,VALID,0,VALID,81.3419,VALID,258.611,VALID,22.9202,VALID,169,VALID,0,
2016-03-02, 08:01:04,VALID,919.8,VALID,0,VALID,80.8692,VALID,259.041,VALID,22.9575,VALID,107,VALID,0.845312,
2016-03-02, 08:02:04,VALID,919.761,VALID,0,VALID,80.7701,VALID,135.054,VALID,23.0356,VALID,102,VALID,1.00586,
2016-03-02, 08:03:04,VALID,919.742,VALID,0,VALID,79.901,VALID,257.107,VALID,23.0763,VALID,147,VALID,0.108203,
2016-03-02, 08:04:04,VALID,919.727,VALID,0,VALID,80.1221,VALID,265.702,VALID,23.0959,VALID,129,VALID,0.666797,
2016-03-02, 08:05:04,VALID,919.749,VALID,0,VALID,80.4957,VALID,133.979,VALID,23.1154,VALID,135,VALID,0.227734,
2016-03-02, 08:06:04,VALID,919.771,VALID,0,VALID,79.9468,VALID,244.429,VALID,23.0551,VALID,143,VALID,1.68711,
2016-03-02, 08:07:04,VALID,919.78,VALID,0,VALID,79.558,VALID,268.818,VALID,22.9965,VALID,148,VALID,0.867578,
2016-03-02, 08:08:04,VALID,919.747,VALID,0,VALID,80.0306,VALID,282.033,VALID,23.016,VALID,97,VALID,0.0546875,
2016-03-02, 08:09:04,VALID,919.731,VALID,0,VALID,80.4118,VALID,307.819,VALID,23.0941,VALID,99,VALID,0.857813,
2016-03-02, 08:10:04,VALID,919.78,VALID,0,VALID,79.4817,VALID,330.596,VALID,23.2112,VALID,136,VALID,0.851172,
2016-03-02, 08:11:04,VALID,919.833,VALID,0,VALID,78.849,VALID,194.039,VALID,23.3088,VALID,159,VALID,2.14844,
2016-03-02, 08:12:04,VALID,919.823,VALID,0,VALID,79.0624,VALID,342.308,VALID,23.3869,VALID,144,VALID,0,
2016-03-02, 08:13:04,VALID,919.876,VALID,0,VALID,79.3064,VALID,167.716,VALID,23.3869,VALID,117,VALID,0,
2016-03-02, 08:14:04,VALID,919.86,VALID,0,VALID,79.4512,VALID,359.498,VALID,23.4454,VALID,107,VALID,0.224609,
2016-03-02, 08:15:04,VALID,919.858,VALID,0,VALID,77.3167,VALID,374.218,VALID,23.3869,VALID,137,VALID,0.907031,
2016-03-02, 08:16:04,VALID,919.853,VALID,0,VALID,79.0929,VALID,385.069,VALID,23.465,VALID,136,VALID,0,
2016-03-02, 08:17:04,VALID,919.886,VALID,0,VALID,77.7665,VALID,253.776,VALID,23.6211,VALID,162,VALID,0,
2016-03-02, 08:18:04,VALID,919.883,VALID,0,VALID,77.7283,VALID,142.467,VALID,23.6211,VALID,116,VALID,0.497266,
2016-03-02, 08:19:04,VALID,919.883,VALID,0,VALID,78.1553,VALID,148.699,VALID,23.5998,VALID,85,VALID,0,
2016-03-02, 08:20:04,VALID,919.898,VALID,0,VALID,77.3929,VALID,348.217,VALID,23.5998,VALID,121,VALID,1.46406,
2016-03-02, 08:21:04,VALID,919.944,VALID,0,VALID,79.3979,VALID,182.543,VALID,23.4632,VALID,133,VALID,1.56953,
2016-03-02, 08:22:04,VALID,919.917,VALID,0,VALID,78.7194,VALID,188.129,VALID,23.3656,VALID,136,VALID,0.819141,
2016-03-02, 08:23:04,VALID,919.911,VALID,0,VALID,79.7104,VALID,193.502,VALID,23.3088,VALID,87,VALID,1.37266,
2016-03-02, 08:24:04,VALID,919.935,VALID,0,VALID,79.314,VALID,384.854,VALID,23.2893,VALID,160,VALID,0.813281,
2016-03-02, 08:25:04,VALID,919.964,VALID,0,VALID,78.4983,VALID,163.74,VALID,23.3283,VALID,175,VALID,0.345313,
2016-03-02, 08:26:04,VALID,919.975,VALID,0,VALID,78.4754,VALID,170.617,VALID,23.3478,VALID,171,VALID,0,
2016-03-02, 08:27:04,VALID,919.977,VALID,0,VALID,79.0167,VALID,358.209,VALID,23.3478,VALID,141,VALID,0.291406,
2016-03-02, 08:28:04,VALID,919.982,VALID,0,VALID,78.8795,VALID,136.45,VALID,23.3283,VALID,138,VALID,0,
2016-03-02, 08:29:04,VALID,920.03,VALID,0,VALID,79.0929,VALID,136.02,VALID,23.2698,VALID,133,VALID,0.848437,
2016-03-02, 08:30:04,VALID,920.04,VALID,0,VALID,79.2073,VALID,133.764,VALID,23.1917,VALID,135,VALID,0.819141,
2016-03-02, 08:31:04,VALID,920.013,VALID,0,VALID,79.7714,VALID,142.36,VALID,23.1722,VALID,144,VALID,0,
2016-03-02, 08:32:04,VALID,920.081,VALID,0,VALID,79.497,VALID,147.194,VALID,23.1527,VALID,128,VALID,2.22734,
2016-03-02, 08:33:04,VALID,920.041,VALID,0,VALID,79.8705,VALID,157.509,VALID,23.0941,VALID,163,VALID,1.7125,
2016-03-02, 08:34:04,VALID,920.075,VALID,0,VALID,80.0078,VALID,160.41,VALID,23.0551,VALID,123,VALID,1.68672,
2016-03-02, 08:35:04,VALID,920.091,VALID,0,VALID,81.2504,VALID,171.691,VALID,22.9965,VALID,95,VALID,1.73242,
2016-03-02, 08:36:04,VALID,920.113,VALID,0,VALID,80.9149,VALID,188.452,VALID,22.9575,VALID,120,VALID,2.08594,
2016-03-02, 08:37:04,VALID,920.097,VALID,0,VALID,81.5096,VALID,171.476,VALID,22.9575,VALID,89,VALID,2.17227,
2016-03-02, 08:38:04,VALID,920.105,VALID,0,VALID,81.9212,VALID,171.369,VALID,22.977,VALID,71,VALID,1.49336,
2016-03-02, 08:39:04,VALID,920.161,VALID,0,VALID,82.1728,VALID,159.872,VALID,22.9965,VALID,110,VALID,0.484766,
2016-03-02, 08:40:04,VALID,920.197,VALID,0,VALID,81.38,VALID,171.154,VALID,22.9965,VALID,128,VALID,0.872266,
2016-03-02, 08:41:04,VALID,920.221,VALID,0,VALID,81.845,VALID,160.087,VALID,23.016,VALID,119,VALID,0.475391,
2016-03-02, 08:42:04,VALID,920.238,VALID,0,VALID,80.8158,VALID,139.029,VALID,23.0356,VALID,168,VALID,0,
2016-03-02, 08:43:04,VALID,920.264,VALID,0,VALID,82.2338,VALID,122.913,VALID,23.0941,VALID,117,VALID,0.161719,
2016-03-02, 08:44:04,VALID,920.29,VALID,0,VALID,81.7611,VALID,137.847,VALID,23.0356,VALID,96,VALID,0.421094,
2016-03-02, 08:45:04,VALID,920.266,VALID,0,VALID,81.8755,VALID,176.203,VALID,23.016,VALID,88,VALID,1.27227,
2016-03-02, 08:46:04,VALID,920.281,VALID,0,VALID,82.5082,VALID,199.411,VALID,22.9575,VALID,101,VALID,0.444922,
2016-03-02, 08:47:04,VALID,920.277,VALID,0,VALID,83.7737,VALID,250.553,VALID,22.9965,VALID,79,VALID,0.813672,
2016-03-02, 08:48:04,VALID,920.273,VALID,0,VALID,83.545,VALID,208.651,VALID,23.0551,VALID,128,VALID,0.251953,
2016-03-02, 08:49:04,VALID,920.302,VALID,0,VALID,84.4827,VALID,164.815,VALID,23.1119,VALID,101,VALID,0.0289063,
2016-03-02, 08:50:04,VALID,920.297,VALID,0,VALID,84.6428,VALID,157.938,VALID,23.1722,VALID,63,VALID,0,
2016-03-02, 08:51:04,VALID,920.342,VALID,0,VALID,82.9123,VALID,174.699,VALID,23.1917,VALID,89,VALID,1,
2016-03-02, 08:52:04,VALID,920.35,VALID,0,VALID,83.9109,VALID,180.823,VALID,23.1917,VALID,72,VALID,1.54688,
2016-03-02, 08:53:04,VALID,920.314,VALID,0,VALID,79.9849,VALID,198.766,VALID,23.1527,VALID,123,VALID,2.05977,
2016-03-02, 08:54:04,VALID,920.322,VALID,0,VALID,80.0611,VALID,209.188,VALID,23.1119,VALID,124,VALID,2.10117,
2016-03-02, 08:55:04,VALID,920.284,VALID,0,VALID,79.9696,VALID,167.071,VALID,23.1331,VALID,105,VALID,0.976953,
2016-03-02, 08:56:04,VALID,920.347,VALID,0,VALID,81.1208,VALID,151.062,VALID,23.1314,VALID,95,VALID,0.00585938,
2016-03-02, 08:57:04,VALID,920.319,VALID,0,VALID,83.4078,VALID,151.062,VALID,23.1917,VALID,99,VALID,0.0289063,
2016-03-02, 08:58:04,VALID,920.332,VALID,0,VALID,82.4091,VALID,160.087,VALID,23.2307,VALID,70,VALID,0,
2016-03-02, 08:59:04,VALID,920.338,VALID,0,VALID,82.3253,VALID,171.476,VALID,23.1917,VALID,137,VALID,0.319531,
2016-03-02, 09:00:04,VALID,920.337,VALID,0,VALID,82.1499,VALID,165.997,VALID,23.1509,VALID,91,VALID,0.167187,
2016-03-02, 09:01:04,VALID,920.34,VALID,0,VALID,81.6315,VALID,136.343,VALID,23.1119,VALID,83,VALID,0.907422,
2016-03-02, 09:02:04,VALID,920.326,VALID,0,VALID,79.9315,VALID,116.144,VALID,23.0533,VALID,92,VALID,0.398047,
2016-03-02, 09:03:04,VALID,920.318,VALID,0,VALID,80.854,VALID,107.871,VALID,23.0143,VALID,74,VALID,1.45313,
2016-03-02, 09:04:04,VALID,920.358,VALID,0,VALID,81.5553,VALID,114.21,VALID,22.9948,VALID,77,VALID,2.67734,
2016-03-02, 09:05:04,VALID,920.369,VALID,0,VALID,85.4356,VALID,119.26,VALID,22.8972,VALID,15,VALID,1.27148,
2016-03-02, 09:06:04,VALID,920.406,VALID,0,VALID,88.8509,VALID,122.268,VALID,22.8191,VALID,26,VALID,0.0703125,
2016-03-02, 09:07:04,VALID,920.406,VALID,0,VALID,85.7939,VALID,127.962,VALID,22.7216,VALID,39,VALID,0.110156,
2016-03-02, 09:08:04,VALID,920.43,VALID,0,VALID,88.6984,VALID,126.781,VALID,22.6435,VALID,29,VALID,1.43984,
2016-03-02, 09:09:04,VALID,920.431,VALID,0,VALID,92.1671,VALID,113.35,VALID,22.5459,VALID,26,VALID,0,
2016-03-02, 09:10:04,VALID,920.493,VALID,0,VALID,95.834,VALID,98.631,VALID,22.5281,VALID,4,VALID,0,
2016-03-02, 09:11:04,VALID,920.527,VALID,0,VALID,94.1873,VALID,94.4408,VALID,22.5069,VALID,32,VALID,0,
2016-03-02, 09:12:04,VALID,920.494,VALID,0,VALID,94.2483,VALID,93.6887,VALID,22.4874,VALID,16,VALID,0.416797,
2016-03-02, 09:13:04,VALID,920.51,VALID,0,VALID,92.7389,VALID,89.2836,VALID,22.4696,VALID,352,VALID,0,
2016-03-02, 09:14:04,VALID,920.529,VALID,0,VALID,91.077,VALID,87.8869,VALID,22.4306,VALID,3,VALID,0,
2016-03-02, 09:15:04,VALID,920.582,VALID,0,VALID,96.2228,VALID,94.4408,VALID,22.3703,VALID,30,VALID,0,
2016-03-02, 09:16:04,VALID,920.593,VALID,0,VALID,97.7551,VALID,103.144,VALID,22.372,INVALID,360,INVALID,0,
2016-03-02, 09:17:04,VALID,920.595,VALID,0,VALID,98.6622,VALID,109.912,VALID,22.372,VALID,42,VALID,0,
2016-03-02, 09:18:04,VALID,920.608,VALID,0,VALID,90.2612,VALID,115.607,VALID,22.3737,VALID,32,VALID,0,
2016-03-02, 09:19:04,VALID,920.592,VALID,0,VALID,92.7465,VALID,124.524,VALID,22.3916,VALID,25,VALID,0,
2016-03-02, 09:20:04,VALID,920.643,VALID,0,VALID,91.0236,VALID,134.731,VALID,22.4696,VALID,25,VALID,0,
2016-03-02, 09:21:04,VALID,920.625,VALID,0,VALID,85.6415,VALID,135.268,VALID,22.5281,VALID,32,VALID,0,
2016-03-02, 09:22:04,VALID,920.618,VALID,0,VALID,86.0379,VALID,129.252,VALID,22.5494,VALID,32,VALID,0,
2016-03-02, 09:23:04,VALID,920.669,VALID,0,VALID,85.6415,VALID,123.45,VALID,22.5884,VALID,32,VALID,0,
2016-03-02, 09:24:04,VALID,920.66,VALID,0,VALID,85.7024,VALID,117.111,VALID,22.6079,VALID,32,VALID,0,
2016-03-02, 09:25:04,VALID,920.707,VALID,0,VALID,83.2858,VALID,113.888,VALID,22.6257,VALID,85,VALID,0,
2016-03-02, 09:26:04,VALID,920.702,VALID,0,VALID,80.732,VALID,114.747,VALID,22.647,VALID,107,VALID,1.9332,
2016-03-02, 09:27:04,VALID,920.702,VALID,0,VALID,81.1894,VALID,115.284,VALID,22.5867,VALID,100,VALID,1.27188,
2016-03-02, 09:28:04,VALID,920.721,VALID,0,VALID,79.7181,VALID,119.26,VALID,22.5477,VALID,81,VALID,1.99023,
2016-03-02, 09:29:04,VALID,920.723,VALID,0,VALID,80.0611,VALID,123.45,VALID,22.5299,VALID,119,VALID,0.0195313,
2016-03-02, 09:30:04,VALID,920.769,VALID,0,VALID,79.2988,VALID,127.425,VALID,22.5281,VALID,86,VALID,0.451953,
2016-03-02, 09:31:04,VALID,920.748,VALID,0,VALID,80.6024,VALID,127.103,VALID,22.5867,VALID,64,VALID,0,
2016-03-02, 09:32:04,VALID,920.711,VALID,0,VALID,79.3979,VALID,127.64,VALID,22.5069,VALID,81,VALID,0.783594,
2016-03-02, 09:33:04,VALID,920.729,VALID,0,VALID,80.5414,VALID,128.392,VALID,22.5477,VALID,41,VALID,0,
2016-03-02, 09:34:04,VALID,920.746,VALID,0,VALID,81.7001,VALID,129.467,VALID,22.5264,VALID,54,VALID,0.747656,
2016-03-02, 09:35:04,VALID,920.772,VALID,0,VALID,82.8208,VALID,134.087,VALID,22.5672,VALID,55,VALID,0,
2016-03-02, 09:36:04,VALID,920.778,VALID,0,VALID,83.2325,VALID,143.219,VALID,22.6257,VALID,57,VALID,0,
2016-03-02, 09:37:04,VALID,920.789,VALID,0,VALID,81.8984,VALID,149.88,VALID,22.6647,VALID,55,VALID,0.917969,
2016-03-02, 09:38:04,VALID,920.805,VALID,0,VALID,80.732,VALID,162.021,VALID,22.6045,VALID,43,VALID,1.72109,
2016-03-02, 09:39:04,VALID,920.814,VALID,0,VALID,81.2046,VALID,162.021,VALID,22.6045,VALID,90,VALID,0,
2016-03-02, 09:40:04,VALID,920.814,VALID,0,VALID,81.0369,VALID,172.228,VALID,22.6257,VALID,91,VALID,0.00429688,
2016-03-02, 09:41:04,VALID,920.885,VALID,0,VALID,81.7154,VALID,181.576,VALID,22.6843,VALID,82,VALID,0.134375,
2016-03-02, 09:42:04,VALID,920.884,VALID,0,VALID,79.3445,VALID,187.27,VALID,22.6045,VALID,133,VALID,1.6043,
2016-03-02, 09:43:04,VALID,920.883,VALID,0,VALID,80.0078,VALID,207.791,VALID,22.585,VALID,127,VALID,0.00195313,
2016-03-02, 09:44:04,VALID,920.859,VALID,0,VALID,80.5948,VALID,248.834,VALID,22.585,VALID,143,VALID,0.0148437,
2016-03-02, 09:45:04,VALID,920.854,VALID,0,VALID,81.2961,VALID,299.009,VALID,22.6435,VALID,112,VALID,1.58008,
2016-03-02, 09:46:04,VALID,920.866,VALID,0,VALID,81.8679,VALID,317.918,VALID,22.7428,VALID,125,VALID,0.144922,
2016-03-02, 09:47:04,VALID,920.901,VALID,0,VALID,79.8629,VALID,335.324,VALID,22.7996,VALID,138,VALID,1.73594,
2016-03-02, 09:48:04,VALID,920.871,VALID,0,VALID,80.5871,VALID,730.707,VALID,22.9167,VALID,67,VALID,0.884375,
2016-03-02, 09:49:04,VALID,920.928,VALID,0,VALID,80.3279,VALID,359.176,VALID,23.0746,VALID,124,VALID,0.596484,
2016-03-02, 09:50:04,VALID,920.882,VALID,0,VALID,78.6965,VALID,321.142,VALID,23.1314,VALID,78,VALID,1.8,
2016-03-02, 09:51:04,VALID,920.862,VALID,0,VALID,79.4589,VALID,285.471,VALID,23.1704,VALID,68,VALID,1.4207,
2016-03-02, 09:52:04,VALID,920.894,VALID,0,VALID,77.4844,VALID,238.949,VALID,23.1509,VALID,82,VALID,1.50898,
2016-03-02, 09:53:04,VALID,920.894,VALID,0,VALID,78.6508,VALID,225.304,VALID,23.0924,VALID,104,VALID,0.629297,
2016-03-02, 09:54:04,VALID,920.91,VALID,0,VALID,77.5835,VALID,227.131,VALID,23.0143,VALID,111,VALID,1.55586,
2016-03-02, 09:55:04,VALID,920.886,VALID,0,VALID,79.3293,VALID,230.139,VALID,22.938,VALID,112,VALID,0.425,
2016-03-02, 09:56:04,VALID,920.882,VALID,0,VALID,79.5961,VALID,250.875,VALID,22.9185,VALID,64,VALID,2.05859,
2016-03-02, 09:57:04,VALID,920.879,VALID,0,VALID,80.7167,VALID,296.108,VALID,22.8599,VALID,67,VALID,0.538672,
2016-03-02, 09:58:04,VALID,920.891,VALID,0,VALID,80.9454,VALID,294.496,VALID,22.8404,VALID,113,VALID,2.07539,
2016-03-02, 09:59:04,VALID,920.849,VALID,0,VALID,80.2669,VALID,286.76,VALID,22.7801,VALID,71,VALID,2.04102,
2016-03-02, 10:00:04,VALID,920.906,VALID,0,VALID,80.0992,VALID,251.412,VALID,22.7411,VALID,102,VALID,1.82656,
2016-03-02, 10:01:04,VALID,920.918,VALID,0,VALID,80.6862,VALID,254.313,VALID,22.7021,VALID,120,VALID,0.783203,
2016-03-02, 10:02:04,VALID,920.892,VALID,0,VALID,80.2974,VALID,275.264,VALID,22.624,VALID,124,VALID,2.62305,
2016-03-02, 10:03:04,VALID,920.895,VALID,0,VALID,81.0979,VALID,302.877,VALID,22.585,VALID,107,VALID,2.2793,
2016-03-02, 10:04:04,VALID,920.861,VALID,0,VALID,81.4943,VALID,318.67,VALID,22.585,VALID,83,VALID,1.44297,
2016-03-02, 10:05:04,VALID,920.852,VALID,0,VALID,81.5172,VALID,326.406,VALID,22.7021,VALID,76,VALID,0.158203,
2016-03-02, 10:06:04,VALID,920.872,VALID,0,VALID,81.1436,VALID,703.202,VALID,22.7996,VALID,43,VALID,1.18594,
2016-03-02, 10:07:04,VALID,920.818,VALID,0,VALID,79.84,VALID,438.36,VALID,22.9167,VALID,82,VALID,2.80117,
2016-03-02, 10:08:04,VALID,920.858,VALID,0,VALID,79.6266,VALID,857.703,VALID,23.0356,VALID,123,VALID,1.77266,
2016-03-02, 10:09:04,VALID,920.869,VALID,0,VALID,80.5414,VALID,833.958,VALID,23.3656,VALID,122,VALID,0.0964844,
2016-03-02, 10:10:04,VALID,920.864,VALID,0,VALID,75.3041,VALID,748.435,VALID,23.7169,VALID,121,VALID,0.692187,
2016-03-02, 10:11:04,VALID,920.839,VALID,0,VALID,78.323,VALID,338.547,VALID,23.9121,VALID,56,VALID,0.707422,
2016-03-02, 10:12:04,VALID,920.829,VALID,0,VALID,75.266,VALID,707.07,VALID,24.0311,VALID,75,VALID,1.44805,
2016-03-02, 10:13:04,VALID,920.898,VALID,0,VALID,72.148,VALID,748.113,VALID,24.0115,VALID,96,VALID,1.73438,
2016-03-02, 10:14:04,VALID,920.861,VALID,0,VALID,72.3843,VALID,738.228,VALID,24.0311,VALID,104,VALID,0.0597656,
2016-03-02, 10:15:04,VALID,920.855,VALID,0,VALID,72.5902,VALID,744.352,VALID,24.1854,VALID,158,VALID,0.505859,
2016-03-02, 10:16:04,VALID,920.841,VALID,0,VALID,73.8633,VALID,761.221,VALID,24.2049,VALID,78,VALID,1.02695,
2016-03-02, 10:17:04,VALID,920.81,VALID,0,VALID,71.8354,VALID,738.443,VALID,24.4606,VALID,68,VALID,2.52344,
2016-03-02, 10:18:04,VALID,920.86,VALID,0,VALID,70.6691,VALID,761.328,VALID,24.5973,VALID,58,VALID,0.273047,
2016-03-02, 10:19:04,VALID,920.83,VALID,0,VALID,69.5637,VALID,783.998,VALID,24.6754,VALID,122,VALID,0.23125,
2016-03-02, 10:20:04,VALID,920.857,VALID,0,VALID,70.5395,VALID,772.287,VALID,24.6168,VALID,124,VALID,1.74141,
2016-03-02, 10:21:04,VALID,920.823,VALID,0,VALID,71.157,VALID,866.728,VALID,24.6735,VALID,103,VALID,1.37305,
2016-03-02, 10:22:04,VALID,920.826,VALID,0,VALID,70.1354,VALID,586.736,VALID,24.693,VALID,126,VALID,1.18867,
2016-03-02, 10:23:04,VALID,920.84,VALID,0,VALID,70.5928,VALID,840.297,VALID,24.693,VALID,139,VALID,0.424219,
2016-03-02, 10:24:04,VALID,920.811,VALID,0,VALID,69.8381,VALID,455.55,VALID,24.5954,VALID,147,VALID,2.13359,
2016-03-02, 10:25:04,VALID,920.836,VALID,0,VALID,70.5852,VALID,316.737,VALID,24.3221,VALID,145,VALID,1.81719,
2016-03-02, 10:26:04,VALID,920.838,VALID,0,VALID,71.5229,VALID,328.985,VALID,24.1677,VALID,125,VALID,0,
2016-03-02, 10:27:04,VALID,920.83,VALID,0,VALID,73.5507,VALID,365.945,VALID,24.1287,VALID,142,VALID,0.865234,
2016-03-02, 10:28:04,VALID,920.837,VALID,0,VALID,72.979,VALID,308.678,VALID,24.1482,VALID,137,VALID,0.923437,
2016-03-02, 10:29:04,VALID,920.829,VALID,0,VALID,74.5189,VALID,287.62,VALID,24.0506,VALID,104,VALID,0.0121094,
2016-03-02, 10:30:04,VALID,920.827,VALID,0,VALID,72.3843,VALID,299.976,VALID,24.0506,VALID,121,VALID,1.28633,
2016-03-02, 10:31:04,VALID,920.802,VALID,0,VALID,73.0399,VALID,321.034,VALID,23.9689,VALID,127,VALID,2.28477,
2016-03-02, 10:32:04,VALID,920.842,VALID,0,VALID,73.0857,VALID,318.885,VALID,23.9103,VALID,115,VALID,0.436328,
2016-03-02, 10:33:04,VALID,920.827,VALID,0,VALID,74.5265,VALID,310.29,VALID,23.9707,VALID,81,VALID,0,
2016-03-02, 10:34:04,VALID,920.798,VALID,0,VALID,72.6054,VALID,301.802,VALID,23.9884,VALID,67,VALID,0,
2016-03-02, 10:35:04,VALID,920.83,VALID,0,VALID,72.6588,VALID,295.141,VALID,24.0079,VALID,86,VALID,0.210938,
2016-03-02, 10:36:04,VALID,920.811,VALID,0,VALID,73.0933,VALID,291.38,VALID,24.0079,VALID,99,VALID,0,
2016-03-02, 10:37:04,VALID,920.776,VALID,0,VALID,72.1175,VALID,286.546,VALID,24.1269,VALID,157,VALID,0,
2016-03-02, 10:38:04,VALID,920.815,VALID,0,VALID,72.0489,VALID,298.686,VALID,24.1445,VALID,78,VALID,0.000390625,
2016-03-02, 10:39:04,VALID,920.82,VALID,0,VALID,73.261,VALID,325.224,VALID,24.1854,VALID,60,VALID,0.185547,
2016-03-02, 10:40:04,VALID,920.841,VALID,0,VALID,71.9269,VALID,291.273,VALID,24.1073,VALID,124,VALID,0.371094,
2016-03-02, 10:41:04,VALID,920.824,VALID,0,VALID,72.6512,VALID,280.636,VALID,24.0292,VALID,56,VALID,2.09297,
2016-03-02, 10:42:04,VALID,920.863,VALID,0,VALID,73.4592,VALID,272.901,VALID,23.9316,VALID,124,VALID,1.6707,
2016-03-02, 10:43:04,VALID,920.914,VALID,0,VALID,74.7857,VALID,268.066,VALID,23.9512,VALID,131,VALID,0.200781,
2016-03-02, 10:44:04,VALID,920.86,VALID,0,VALID,73.1848,VALID,266.132,VALID,23.8127,VALID,69,VALID,2.37266,
2016-03-02, 10:45:04,VALID,920.864,VALID,0,VALID,74.4732,VALID,265.809,VALID,23.7737,VALID,73,VALID,0.872266,
2016-03-02, 10:46:04,VALID,920.854,VALID,0,VALID,73.909,VALID,263.768,VALID,23.795,VALID,100,VALID,1.11289,
2016-03-02, 10:47:04,VALID,920.838,VALID,0,VALID,74.214,VALID,261.404,VALID,23.7187,VALID,110,VALID,2.50234,
2016-03-02, 10:48:04,VALID,920.842,VALID,0,VALID,72.9027,VALID,262.694,VALID,23.6584,VALID,142,VALID,1.4668,
2016-03-02, 10:49:04,VALID,920.793,VALID,0,VALID,74.8772,VALID,264.628,VALID,23.5608,VALID,86,VALID,2.45703,
2016-03-02, 10:50:04,VALID,920.85,VALID,0,VALID,74.9611,VALID,265.165,VALID,23.4632,VALID,123,VALID,1.16523,
2016-03-02, 10:51:04,VALID,920.867,VALID,0,VALID,75.67,VALID,266.132,VALID,23.5217,VALID,110,VALID,0.340625,
2016-03-02, 10:52:04,VALID,920.888,VALID,0,VALID,74.8772,VALID,267.206,VALID,23.4046,VALID,106,VALID,3.00938,
2016-03-02, 10:53:04,VALID,920.916,VALID,0,VALID,75.5862,VALID,278.702,VALID,23.2662,VALID,106,VALID,1.90625,
2016-03-02, 10:54:04,VALID,920.897,VALID,0,VALID,76.2037,VALID,300.405,VALID,23.2272,VALID,62,VALID,2.43281,
2016-03-02, 10:55:04,VALID,920.895,VALID,0,VALID,75.7691,VALID,329.307,VALID,23.2094,VALID,94,VALID,1.95781,
2016-03-02, 10:56:04,VALID,920.88,VALID,0,VALID,76.0893,VALID,345.531,VALID,23.1687,VALID,142,VALID,0.0417969,
2016-03-02, 10:57:04,VALID,920.849,VALID,0,VALID,76.7068,VALID,351.118,VALID,23.1882,VALID,76,VALID,2.60352,
2016-03-02, 10:58:04,VALID,920.926,VALID,0,VALID,76.2342,VALID,357.349,VALID,23.2094,VALID,130,VALID,1.67695,
2016-03-02, 10:59:04,VALID,920.875,VALID,0,VALID,76.3942,VALID,364.011,VALID,23.1704,VALID,107,VALID,3.29727,
2016-03-02, 11:00:04,VALID,920.873,VALID,0,VALID,77.1185,VALID,372.498,VALID,23.1704,VALID,72,VALID,2.95273,